Regional Weather Roundup
Issued by NWS

Home | Current Version | Previous Version | Graphics & Text | Print | Product List | Glossary On
Versions: 1 2 3 4 5 6 7 8 9 10 11 12 13 14 15 16 17 18 19 20 21 22 23 24 25 26 27 28 29 30 31 32 33 34 35 36 37 38 39 40 41 42 43 44 45 46 47 48 49 50
000
ASUS45 KBOU 250607
RWRCO

WEATHER ROUNDUP FOR COLORADO
NATIONAL WEATHER SERVICE DENVER/BOULDER CO
1200 AM MDT SAT APR 25 2015

NOTE: "FAIR" INDICATES FEW OR NO CLOUDS BELOW 12000 FEET WITH NO
SIGNIFICANT WEATHER AND/OR OBSTRUCTIONS TO VISIBILITY.

COZ001>005-013-030-031-250700-
...NORTHWEST COLORADO...

CITY           SKY/WX    TMP DP  RH WIND       PRES   REMARKS
CRAIG          CLOUDY    42  33  70 SE5       29.78R
HAYDEN         CLOUDY    45  30  57 E8        29.79S
MEEKER         CLOUDY    48  29  47 VRB5      29.80R
MOUNT WERNER   NOT AVBL
STEAMBOAT SPGS CLOUDY    38  32  78 S3        29.81S
WALDEN         CLEAR     30  28  93 SE3       29.83F
$$

COZ006>008-011-250700-
...WEST CENTRAL VALLEYS...

CITY           SKY/WX    TMP DP  RH WIND       PRES   REMARKS
GRAND JUNCTION MOCLDY    52  32  46 SE15      29.77F
MONTROSE       PTCLDY    40  33  76 SE8       29.85S
EAGLE          PTCLDY    36  28  75 E6        29.87S
RIFLE          PTCLDY    39  32  76 CALM      29.81S
DELTA          NOT AVBL
NUCLA          CLOUDY    48  28  46 SE7       29.88S
$$

COZ017>023-064>068-250700-
...SOUTHWEST COLORADO...

CITY           SKY/WX    TMP DP  RH WIND       PRES   REMARKS
DURANGO        CLOUDY    38  34  85 N12       29.97R
CORTEZ         CLOUDY    51  33  50 SW14      29.91R
PAGOSA SPRINGS CLOUDY    33  30  88 CALM      29.99S
TELLURIDE      PTCLDY    33  28  82 SE6       29.99S WCI  28
WOLF CREEK PAS NOT AVBL
$$

COZ009-010-012-014-032>034-037-058>063-250700-
...CENTRAL COLORADO...

CITY           SKY/WX    TMP DP  RH WIND       PRES   REMARKS
ASPEN          CLOUDY    35  26  69 S6        29.88S WCI  30
BUENA VISTA    CLEAR     40  23  51 NW6       29.87S
COPPER MTN     MOCLDY    30  18  59 SW13G21   29.98R WCI  20
BERTHOUD PASS  FAIR      21  12  68 NW32G40   29.94F WCI   2
COTTONWOOD PAS CLEAR     37  21  52 NW14G30   29.90R
GUNNISON       CLEAR     30  21  69 N6        29.94F WCI  24
KREMMLING      MOCLDY    37  28  70 NE6       29.86S
LEADVILLE      PTCLDY    28  18  66 NE12      29.92S WCI  18
MONARCH PASS   CLOUDY    23  21  93 MISG      30.07F
SALIDA         CLEAR     45  25  44 SW15G21   29.93S
SUNLIGHT       PTCLDY    30  27  86 CALM      29.98S
WILKERSON PASS PTCLDY    28  18  64 NW9G16    29.96S WCI  20
$$

COZ069>075-250700-
...SAN LUIS VALLEY/SANGRE DE CRISTO MOUNTAINS...

CITY           SKY/WX    TMP DP  RH WIND       PRES   REMARKS
ALAMOSA        CLEAR     33  19  56 SW6       29.91S WCI  28
LA VETA PASS   CLEAR     30  21  69 S14G25    29.93R WCI  20
SAGUACHE       CLEAR     34  27  75 NW10      29.91S WCI  26
$$

COZ035-036-038>040-250700-
...NORTHERN COLORADO FRONT RANGE...

CITY           SKY/WX    TMP DP  RH WIND       PRES   REMARKS
DENVER INTL AP PTCLDY    47  32  56 SW7       29.71R
DMNS CITY PARK   N/A     46  32  58 SE6       29.71R
AURORA         PTCLDY    45  31  58 S6        29.72S
FRONT RANGE AP NOT AVBL
ERIE MUNI ARPT PTCLDY    42  33  69 E6        29.69S
BOULDER MUN AP PTCLDY    46  32  57 CALM      29.70R
CENTENNIAL     PTCLDY    44  29  55 SW10      29.72S
BROOMFIELD     PTCLDY    52  27  37 W14       29.71S
FORT COLLINS   MOCLDY    52  34  50 N6        29.70S
LONGMONT       MOCLDY    47  35  63 NE5       29.71R
$$

COZ041-046-047-076>085-087-088-250700-
...PIKES PEAK/PALMER DIVIDE AND SOUTHERN FOOTHILLS...

CITY           SKY/WX    TMP DP  RH WIND       PRES   REMARKS
COLO. SPRINGS  PTCLDY    45  32  60 NW5       29.76F
A. F. ACADEMY  PTCLDY    46  22  38 N6        29.75F
ELLICOTT       PTCLDY   N/A N/A N/A CALM      29.75R
FALCON         PTCLDY    43  25  48 W10       29.78S
FORT CARSON    PTCLDY    44  33  66 CALM      29.73F
LIMON          PTCLDY    38  36  92 N6        29.72R
MONUMENT HILL  PTCLDY    36  28  75 SW9       29.77S
TRINIDAD       CLEAR     41  24  51 W13       29.77S
$$

COZ042>045-048>051-090-091-250700-
...NORTHEAST COLORADO...

CITY           SKY/WX    TMP DP  RH WIND       PRES   REMARKS
GREELEY ARPT   MOCLDY    54  34  47 NW10      29.68S
AKRON          CLOUDY    47  38  71 W12       29.65S
BURLINGTON     CLOUDY    46  40  79 W7        29.64R
WRAY           CLOUDY    49  41  72 NW7       29.62R
STERLING       MOCLDY    52  39  62 NW12      29.62S
HOLYOKE        CLOUDY    46  41  81 NW7       29.62R
FORT MORGAN    MOCLDY    52  36  54 NW10      29.66F
$$

COZ086-089-092>099-250700-
...SOUTHEAST COLORADO...

CITY           SKY/WX    TMP DP  RH WIND       PRES   REMARKS
PUEBLO         PTCLDY    46  36  68 W9        29.71F
LA JUNTA       PTCLDY    52  36  54 W10       29.69R
LAMAR          MOCLDY    47  42  83 S9        29.63R
SPRINGFIELD      N/A     48  37  65 W9        29.69R
$$


USA.gov is the U.S. government's official web portal to all federal, state and local government web resources and services.